Location: Nashville
(36.1660°N, 86.7840°W)
Time: 20:56:22
(UTC-05:00)

Tiros 1 - Pass Details

Date: 02 February 2022
Orbit: 629 x 663 km, 48.4° (Epoch: 27 May)

Event Time Altitude Azimuth Distance (km) Brightness Sun altitude
Rises 20:14:48 0° 268° (W) 2,982 11.5 -36.5°
Reaches altitude 10° 20:17:25 10° 280° (W) 2,074 10.5 -37.0°
Enters shadow 20:18:53 17° 293° (WNW) 1,638 9.8 -37.3°
